Hauptseite
METAR-TAF:

METAR-TAF

Flughäfen :

Militärflugplatz Dübendorf

Dübendorf, Schweiz

Breite: 47-23-55N, Länge: 8-38-53E, Höhe: 448 m

Beobachtung

Neuester Wetterbericht von vor 1 Stunde und 2 Minuten, um 10:50 UTC
Wind 1 kt aus unterschiedlichen Richtungen
Temperatur 8°C
Luftfeuchtigkeit 93%
Luftdruck 1029 hPa
Sichtweite: 6000 m
Aufgelockert bewölkt in der Höhe von 400 ft
Geschlossene Wolkendecke in der Höhe von 800 ft

METAR: LSMD 141050Z VRB01KT 6000 SCT004 OVC008 08/07 Q1029 RMK GRN

Zeit: 12:52 (11:52 UTC)


TAF: fehlend

Wetterbeobachtungen und Prognosen von mehr als 4000 Flughäfen (METAR und TAF Bericht).

Die verfügbaren Stationen werden durch gelbe und rote Markierungen auf der Karte dargestellt.

Führen Sie die Maus auf sie, um den Namen der Station zu sehen.

Darauf klicken, um die Beobachtung von Wetterbeobachtungen und Prognosen zu sehen.

Um die Karte zu ändern : klicken Sie auf den grünen Tasten mit einem schwarzen Kreuz Zum Vergrößern, auf den grünen Button mit einem Gedankenstrich zu verkleinern, oder auf die grünen Pfeile für benachbarte Karten.


METAR-TAF: